Weather History for Shawnee, OK

Change the Weather History Date:

Thursday, April 17, 2014

  Actual Average (KTIK) Record (KTIK)
Temperature  
Mean Temperature 56 °F -  
Max Temperature 64 °F 68 °F 96 °F (2006)
Min Temperature 48 °F 48 °F 35 °F (1999)
Degree Days  
Heating Degree Days 9    
Growing Degree Days 6 (Base 50)    
Moisture  
Dew Point 45 °F    
Average Humidity 64    
Maximum Humidity 76    
Minimum Humidity 55    
Precipitation  
Precipitation 0.00 in - - ()
Sea Level Pressure  
Sea Level Pressure 30.18 in    
Wind  
Wind Speed 5 mph (NE)    
Max Wind Speed 10 mph    
Max Gust Speed -    
Visibility 10 miles    
Events      
Averages and records for this station are not official NWS values.
T = Trace of Precipitation, MM = Missing Value Source: NWS Daily Summary

Daily Weather History Graph

Daily Weather History Graph

Search for Another Location

Airport:

Trip Planner

Search our weather history database for the weather conditions in past years. The results will help you decide how hot, cold, wet, or windy it might be!

Date:

Astronomy

Apr. 17, 2014 Rise Set
Actual Time 6:52 AM CDT 8:02 PM CDT
Civil Twilight 6:26 AM CDT 8:28 PM CDT
Nautical Twilight 5:55 AM CDT 9:00 PM CDT
Astronomical Twilight 5:22 AM CDT 9:32 PM CDT
Moon 10:44 PM CDT (4/17) 8:29 AM CDT (4/17)
Length of Visible Light 14h 02m
Length of Day
13h 09m
Waning Gibbous, 93% of the Moon is Illuminated
Apr 17
Waning Gibbous
Apr 22
Last Quarter
Apr 29
New
May 6
First Quarter
May 14
Full

Hourly Weather History & Observations

Time (CDT) Temp. Dew Point Humidity Pressure Visibility Wind Dir Wind Speed Gust Speed Precip Events Conditions
12:15 AM 55.4 °F 41.0 °F 58% 30.05 in 10.0 mi SSE 10.4 mph - N/A   Clear
12:35 AM 55.4 °F 41.0 °F 58% 30.05 in 10.0 mi SSE 9.2 mph - N/A   Clear
12:55 AM 55.4 °F 41.0 °F 58% 30.06 in 10.0 mi SSE 8.1 mph - N/A   Clear
1:15 AM 55.4 °F 41.0 °F 58% 30.06 in 10.0 mi SSE 8.1 mph - N/A   Clear
1:35 AM 53.6 °F 39.2 °F 58% 30.07 in 10.0 mi SSE 10.4 mph - N/A   Clear
1:55 AM 53.6 °F 39.2 °F 58% 30.07 in 10.0 mi SSE 9.2 mph - N/A   Clear
2:15 AM 53.6 °F 39.2 °F 58% 30.07 in 10.0 mi SSE 6.9 mph - N/A   Clear
2:35 AM 53.6 °F 39.2 °F 58% 30.07 in 10.0 mi Calm Calm - N/A   Clear
2:55 AM 51.8 °F 37.4 °F 58% 30.08 in 10.0 mi SSE 4.6 mph - N/A   Clear
3:15 AM 51.8 °F 39.2 °F 62% 30.08 in 10.0 mi SSE 5.8 mph - N/A   Clear
3:35 AM 51.8 °F 39.2 °F 62% 30.08 in 10.0 mi SE 5.8 mph - N/A   Clear
3:55 AM 51.8 °F 41.0 °F 67% 30.08 in 10.0 mi SSE 5.8 mph - N/A   Clear
4:15 AM 51.8 °F 41.0 °F 67% 30.09 in 10.0 mi SE 5.8 mph - N/A   Clear
4:35 AM 51.8 °F 41.0 °F 67% 30.09 in 10.0 mi Calm Calm - N/A   Clear
4:55 AM 51.8 °F 41.0 °F 67% 30.09 in 10.0 mi SSE 5.8 mph - N/A   Clear
5:15 AM 51.8 °F 41.0 °F 67% 30.10 in 10.0 mi SSE 5.8 mph - N/A   Clear
5:35 AM 51.8 °F 41.0 °F 67% 30.10 in 10.0 mi SE 5.8 mph - N/A   Clear
5:55 AM 51.8 °F 41.0 °F 67% 30.11 in 10.0 mi SE 4.6 mph - N/A   Clear
6:15 AM 48.2 °F 41.0 °F 76% 30.12 in 10.0 mi Calm Calm - N/A   Clear
6:35 AM 48.2 °F 41.0 °F 76% 30.14 in 10.0 mi North 3.5 mph - N/A   Clear
6:55 AM 48.2 °F 41.0 °F 76% 30.15 in 10.0 mi NNE 3.5 mph - N/A   Scattered Clouds
7:15 AM 48.2 °F 41.0 °F 76% 30.16 in 10.0 mi Calm Calm - N/A   Mostly Cloudy
7:35 AM 50.0 °F 42.8 °F 76% 30.17 in 10.0 mi Calm Calm - N/A   Mostly Cloudy
7:55 AM 51.8 °F 42.8 °F 71% 30.18 in 10.0 mi Calm Calm - N/A   Overcast
8:15 AM 51.8 °F 41.0 °F 67% 30.18 in 10.0 mi Calm Calm - N/A   Overcast
8:35 AM 51.8 °F 41.0 °F 67% 30.19 in 10.0 mi Calm Calm - N/A   Overcast
8:55 AM 53.6 °F 42.8 °F 67% 30.19 in 10.0 mi SE 5.8 mph - N/A   Overcast
9:15 AM 53.6 °F 42.8 °F 67% 30.20 in 10.0 mi ESE 4.6 mph - N/A   Overcast
9:35 AM 53.6 °F 42.8 °F 67% 30.20 in 10.0 mi Calm Calm - N/A   Mostly Cloudy
9:55 AM 55.4 °F 44.6 °F 67% 30.21 in 10.0 mi Calm Calm - N/A   Mostly Cloudy
10:15 AM 55.4 °F 42.8 °F 63% 30.21 in 10.0 mi Calm Calm - N/A   Overcast
10:35 AM 57.2 °F 44.6 °F 63% 30.21 in 10.0 mi Calm Calm - N/A   Overcast
10:55 AM 59.0 °F 46.4 °F 63% 30.22 in 10.0 mi Calm Calm - N/A   Mostly Cloudy
11:15 AM 60.8 °F 46.4 °F 59% 30.23 in 10.0 mi Calm Calm - N/A   Mostly Cloudy
11:35 AM 60.8 °F 46.4 °F 59% 30.23 in 10.0 mi Calm Calm - N/A   Mostly Cloudy
11:55 AM 62.6 °F 50.0 °F 63% 30.24 in 10.0 mi Calm Calm - N/A   Mostly Cloudy
12:15 PM 62.6 °F 50.0 °F 63% 30.23 in 10.0 mi Calm Calm - N/A   Scattered Clouds
12:35 PM 64.4 °F 50.0 °F 59% 30.23 in 10.0 mi Calm Calm - N/A   Scattered Clouds
12:55 PM 64.4 °F 50.0 °F 59% 30.22 in 10.0 mi North 3.5 mph - N/A   Clear
1:15 PM 60.8 °F 50.0 °F 68% 30.21 in 10.0 mi North 5.8 mph - N/A   Clear
1:35 PM 62.6 °F 50.0 °F 63% 30.22 in 10.0 mi NNE 3.5 mph - N/A   Clear
1:55 PM 62.6 °F 50.0 °F 63% 30.21 in 10.0 mi North 4.6 mph - N/A   Scattered Clouds
2:15 PM 62.6 °F 50.0 °F 63% 30.21 in 10.0 mi NNE 6.9 mph - N/A   Scattered Clouds
2:35 PM 62.6 °F 50.0 °F 63% 30.21 in 10.0 mi NNE 5.8 mph - N/A   Mostly Cloudy
2:55 PM 60.8 °F 48.2 °F 63% 30.22 in 10.0 mi North 4.6 mph - N/A   Overcast
3:15 PM 60.8 °F 50.0 °F 68% 30.22 in 10.0 mi North 6.9 mph - N/A   Overcast
3:35 PM 60.8 °F 50.0 °F 68% 30.21 in 10.0 mi NNE 8.1 mph - N/A   Overcast
3:55 PM 60.8 °F 48.2 °F 63% 30.21 in 10.0 mi North 6.9 mph - N/A   Overcast
4:15 PM 60.8 °F 50.0 °F 68% 30.22 in 10.0 mi NNE 5.8 mph - N/A   Overcast
4:35 PM 60.8 °F 50.0 °F 68% 30.21 in 10.0 mi North 8.1 mph - N/A   Overcast
4:55 PM 60.8 °F 50.0 °F 68% 30.22 in 10.0 mi NNE 6.9 mph - N/A   Overcast
5:15 PM 60.8 °F 46.4 °F 59% 30.22 in 10.0 mi NNE 5.8 mph - N/A   Overcast
5:35 PM 60.8 °F 46.4 °F 59% 30.22 in 10.0 mi NNE 5.8 mph - N/A   Overcast
5:55 PM 60.8 °F 46.4 °F 59% 30.22 in 10.0 mi NNE 6.9 mph - N/A   Overcast
6:15 PM 60.8 °F 46.4 °F 59% 30.22 in 10.0 mi NNE 4.6 mph - N/A   Overcast
6:35 PM 62.6 °F 46.4 °F 55% 30.20 in 10.0 mi NNE 4.6 mph - N/A   Overcast
6:55 PM 60.8 °F 46.4 °F 59% 30.21 in 10.0 mi NNE 5.8 mph - N/A   Overcast
7:15 PM 60.8 °F 46.4 °F 59% 30.21 in 10.0 mi NNE 5.8 mph - N/A   Overcast
7:35 PM 60.8 °F 46.4 °F 59% 30.21 in 10.0 mi North 6.9 mph - N/A   Overcast
7:55 PM 59.0 °F 44.6 °F 59% 30.22 in 10.0 mi North 5.8 mph - N/A   Overcast
8:15 PM 59.0 °F 44.6 °F 59% 30.22 in 10.0 mi North 5.8 mph - N/A   Overcast
8:35 PM 59.0 °F 44.6 °F 59% 30.22 in 10.0 mi NNE 3.5 mph - N/A   Overcast
8:55 PM 59.0 °F 44.6 °F 59% 30.23 in 10.0 mi North 3.5 mph - N/A   Overcast
9:15 PM 57.2 °F 44.6 °F 63% 30.24 in 10.0 mi North 3.5 mph - N/A   Overcast
9:35 PM 55.4 °F 44.6 °F 67% 30.24 in 7.0 mi NNE 3.5 mph - N/A   Mostly Cloudy
9:55 PM 55.4 °F 44.6 °F 67% 30.24 in 7.0 mi Calm Calm - N/A   Mostly Cloudy
10:15 PM 55.4 °F 46.4 °F 72% 30.25 in 7.0 mi North 3.5 mph - N/A   Mostly Cloudy
10:35 PM 55.4 °F 46.4 °F 72% 30.26 in 7.0 mi NNE 3.5 mph - N/A   Mostly Cloudy
10:55 PM 53.6 °F 44.6 °F 72% 30.26 in 5.0 mi Calm Calm - N/A   Haze
11:15 PM 53.6 °F 44.6 °F 72% 30.26 in 5.0 mi NNE 4.6 mph - N/A   Haze
11:35 PM 53.6 °F 44.6 °F 72% 30.26 in 7.0 mi NNE 4.6 mph - N/A   Overcast
11:55 PM 53.6 °F 44.6 °F 72% 30.26 in 7.0 mi NNE 4.6 mph - N/A   Overcast